Lid_Strength_Index
1 -0 -1 -1 -1 -1 -1 -1 -1 -1 -1 -1 -1 -1 -1 -1 -1 -1 -1 -1 -1 -1 -1 -1 -1 -1 -1 -1 -1 -1 -1 -1 -1 -1 -1 -1 -1 -1 -1 -1 -1 -1 -1
-0 -1 -1 -1 -1 -1 -1 -1 -1 -1 -1 -1 -1 -1 -1 -1 -1 -1 -1 -1 -1 -1 -1 -1 -1 -1 -1 -1 -1 -1 -1 -1 -1 -1 -1 -2 -2 -1 -1 -1 -1 -1 -1
-0 -1 -1 -1 -1 -1 -1 -1 -1 -1 -1 -1 -1 -1 -1 -1 -1 -1 -1 -1 -1 -1 -1 -1 -1 -1 -1 -1 -1 -1 -1 -1 -0 -1 -1 0 -1 -1 -1 -1 -1 -1 -1
-0 -1 -1 -1 -1 -1 -1 -1 -1 -1 -1 -1 -1 -1 -1 -1 -1 -1 -1 -1 -1 -1 -1 -1 -1 -1 -1 -1 -1 -1 -1 -1 -0 -1 -1 0 0 -1 -1 -1 -1 -1 -1
-0 -1 -1 -1 -1 -1 -1 -1 -1 -1 -1 -1 -1 -1 -1 -1 -1 -1 -1 -1 -1 -1 -1 -1 -1 -1 -1 -1 -1 -1 -1 -1 -1 -0 -1 -0 -0 -1 -1 -1 -1 -2 -1
-0 -1 -1 -1 -1 -1 -1 -1 -1 -1 -1 -1 -1 -1 -1 -1 -1 -1 -1 -1 -1 -1 -1 -1 -1 -1 -1 -1 -1 -1 -1 -1 -1 -0 -1 -0 0 -1 -1 -1 -1 -2 -2
-0 -1 -1 -1 -1 -1 -1 -1 -1 -1 -1 -1 -1 -1 -1 -1 -1 -1 -1 -1 -1 -1 -1 -1 -1 -1 -1 -1 -1 -1 -1 -2 -1 0 0 -1 -0 -1 -2 -1 -2 -2 -2
0 -0 -1 -1 -1 -1 -1 -1 -1 -1 -1 -1 -1 -1 -1 -1 -1 -1 -1 -1 -1 -1 -1 -1 -1 -1 -1 -1 -1 -1 -2 -2 0 0 -0 -1 -2 -1 -1 -2 -2 -2 -2
-0 -0 -1 -1 -1 -1 -1 -1 -1 -1 -1 -1 -1 -1 -1 -1 -1 -1 -1 -1 -1 -1 -1 -1 -1 -1 -1 -1 -1 -1 -2 -1 -1 -0 0 -0 -2 -1 -1 -1 -2 -2 -2
-0 -0 -0 -1 -1 -1 -1 -1 -1 -1 -1 -1 -1 -1 -1 -1 -1 -1 -1 -1 -1 -1 -1 -1 -1 -1 -1 -1 -1 -1 -1 -1 -1 -0 -0 -0 -2 -1 -1 -1 -2 -2 -2
1 0 -0 -0 -0 -1 -1 -0 -1 -1 -1 -1 -1 -1 -1 -1 -1 -1 -1 -2 -1 -1 -1 -1 -1 -1 -1 -1 -1 -1 -1 -1 -0 -0 1 -1 -1 -1 -1 -1 -2 -2 -2
1 1 0 -0 -0 -0 -0 -1 -1 -1 -1 -1 -1 -1 -1 -1 -1 -1 -1 -1 -1 -1 -1 -1 -1 -1 -1 -0 -1 -1 -1 -1 -1 -1 -1 -2 -1 -1 -1 -2 -2 -2 -2
1 1 0 -0 -0 -0 -0 -0 -1 -1 -1 -1 -1 -1 -1 -1 -1 -1 -1 -1 -1 -0 -1 -1 -1 -1 -1 -1 -0 -1 -1 -1 -0 -1 -1 -2 -2 -2 -2 -2 -2 -2 -2
1 1 0 -0 -0 -0 -0 -0 -0 -0 -0 -0 -1 -1 -1 -0 -0 -0 -0 -1 -1 -1 -0 -1 -0 -1 -0 -1 -0 -0 -0 -0 -0 -1 -1 -1 -2 -2 -2 -2 -2 -2 -2
1 1 0 -0 -0 -0 -0 -0 -0 -0 -0 -0 -1 -1 -1 -0 -0 -0 -0 -0 -1 -1 -0 -0 -0 -0 -0 -0 -0 -0 -0 -0 -0 -0 -1 -0 -1 -2 -2 -2 -2 -2 -2
1 1 0 0 -0 -0 0 -0 -0 -0 -0 -1 -1 -1 -1 -1 -0 -0 -0 -0 -0 -1 -1 -0 -0 0 0 -0 0 -0 0 -0 -0 -0 -0 -1 -1 -1 -1 -2 -2 -2 -2
2 2 2 2 0 -0 0 -0 -0 -0 -1 -0 -1 -1 -1 -1 -0 -0 -0 0 -0 -1 -0 -0 -0 0 0 0 1 0 0 -0 -0 -0 -0 -0 -1 -0 -1 -1 -1 -2 -1
2 2 1 1 1 0 -0 -0 -0 -0 -1 -1 -1 -1 -1 -1 -1 -0 0 0 -0 -0 -0 0 1 1 1 1 1 0 0 0 0 -0 -0 -0 -0 -0 -1 -1 -1 -1 -1
2 1 1 0 0 0 -0 -0 -0 -0 -0 -0 -1 -1 -1 -1 -1 -0 0 0 0 0 -0 1 2 2 2 2 2 1 1 1 0 1 0 -0 -0 -0 -0 -0 -0 -0 -1
1 1 1 1 0 0 0 0 0 0 -0 0 1 1 2 3 3 2 3 3 3 3 4 4 4 4 4 4 4 4 3 3 2 2 1 0 -0 0 1 0 -0 -0 -0
1 1 1 1 1 1 1 1 1 2 3 3 3 4 4 3 3 3 4 4 4 5 5 5 5 5 4 4 5 5 5 4 3 3 4 4 4 3 3 2 2 0 -0
3 2 1 1 1 1 1 1 2 3 3 3 3 4 3 4 4 5 6 6 6 6 5 6 6 6 6 6 7 7 8 7 5 6 6 5 5 4 4 3 3 2 2
4 3 3 2 1 2 2 3 3 3 3 4 4 4 5 5 7 7 7 7 7 7 7 7 7 7 8 7 7 8 10 11 9 7 7 6 6 6 5 5 5 4 4
4 3 2 2 3 3 3 3 4 5 6 5 4 5 5 6 8 8 8 8 8 8 8 8 8 8 8 9 8 9 8 8 11 11 8 8 7 8 7 6 6 6 5
4 3 3 4 4 4 4 4 5 5 4 5 5 6 7 7 8 9 9 9 9 9 9 9 9 9 9 9 10 10 10 9 8 11 13 11 10 9 8 7 6 6 6
4 4 4 5 5 5 5 5 5 5 6 6 7 8 8 8 9 9 10 10 10 10 10 10 10 10 10 9 10 10 10 10 11 12 13 12 12 10 8 7 7 6 5